Track COSMOS 2441 now! 10-day predictions COSMOS 2441 is classified as:
1 33272U 08037A 22136.83592098 .00000169 00000-0 52672-4 0 9995 2 33272 98.1465 89.7548 0015110 252.2244 107.7303 14.51930662731427